Theta_e
332 333 334 334 333 332 333 332 331 330 331 331 332 332 330 329 330 329 329 329 329 326 324 324 323 321 319 320 320 319 318 318 317 317 317 317 317 318
336 335 335 335 334 333 332 332 332 331 330 329 331 332 331 330 330 330 330 329 329 328 329 328 329 327 324 321 320 320 319 318 318 318 317 317 317 317
326 332 336 333 329 332 334 334 332 333 331 329 329 332 331 330 329 328 328 328 329 329 330 330 328 325 325 325 324 321 318 318 318 317 317 317 317 317
323 322 323 329 335 334 332 331 331 331 331 331 330 331 330 329 328 328 329 327 328 329 327 327 328 328 326 326 326 324 323 321 320 317 317 317 317 318
323 322 323 332 333 332 334 333 332 331 331 330 331 331 328 330 329 330 329 329 327 327 327 328 327 327 325 324 325 325 323 323 324 323 320 318 319 319
322 322 328 333 332 333 333 332 332 332 333 332 329 330 331 328 328 327 327 326 326 326 327 327 325 324 325 326 325 324 322 323 324 324 324 324 323 323
326 325 329 330 331 335 333 331 329 328 328 327 327 326 325 326 325 324 326 328 328 327 326 325 323 323 324 324 323 322 324 325 325 325 324 323 322 322
326 333 332 336 337 335 332 331 326 325 326 328 327 327 326 325 324 325 327 326 325 322 325 323 319 319 315 314 319 322 324 324 324 322 322 323 322 322
329 332 331 336 333 333 328 329 326 326 327 328 327 325 326 325 324 324 323 322 321 318 315 316 319 320 321 321 323 325 321 322 322 322 322 322 320 318
337 334 332 333 331 329 327 328 328 326 326 327 324 321 324 325 325 324 323 318 317 318 320 321 321 321 322 323 321 324 322 322 320 319 318 318 319 319
332 333 333 329 329 329 329 330 329 327 326 326 327 327 327 326 324 321 318 319 320 321 320 320 321 322 320 319 318 316 315 319 318 318 319 321 322 321
337 334 332 330 331 330 331 329 327 327 326 327 327 326 324 322 320 321 319 320 320 321 320 321 319 315 312 314 317 319 319 318 317 318 319 322 323 323
337 336 336 333 330 330 328 328 328 327 327 326 324 321 319 321 322 320 320 319 320 320 318 313 310 310 316 318 318 319 318 317 316 317 319 320 320 322
336 337 335 332 329 328 329 327 326 326 324 322 319 319 321 321 318 318 318 317 314 313 311 310 310 317 319 318 319 319 316 316 317 317 318 317 318 322
333 332 328 325 329 328 328 326 326 323 320 318 320 321 319 317 316 315 314 312 310 309 309 311 318 316 317 318 318 317 316 316 316 318 317 315 318 320
328 327 328 328 328 327 326 323 320 320 319 319 319 317 316 315 314 312 311 309 308 310 312 315 315 316 317 316 316 315 315 314 314 313 313 315 319 321
328 328 328 326 325 324 324 323 322 320 319 318 318 316 315 313 312 310 308 307 309 309 314 315 315 316 316 316 314 314 314 313 311 310 312 314 320 327
327 329 328 326 326 326 324 322 320 319 319 317 316 315 313 312 309 308 307 308 307 310 313 313 315 316 315 314 314 313 313 310 309 310 310 312 320 330
327 326 323 323 323 321 321 320 319 318 316 315 314 313 311 309 307 307 307 307 307 306 310 315 316 315 314 314 313 312 310 308 308 309 309 315 322 330
319 320 320 320 320 320 319 318 317 316 315 313 312 311 308 307 306 306 306 306 306 306 312 312 314 313 314 314 313 312 309 307 307 307 310 318 326 331
320 318 317 317 317 316 316 315 314 313 312 309 307 307 307 306 306 306 305 306 306 307 309 311 314 313 314 313 313 311 310 308 307 306 306 313 317 328
316 314 314 313 314 313 313 313 311 308 307 307 307 306 305 305 305 305 305 306 306 307 306 307 313 313 314 313 312 310 309 309 307 307 306 305 305 307
315 314 313 313 312 312 310 307 306 306 306 306 305 304 304 305 305 305 305 306 306 306 305 309 312 310 310 312 311 310 309 308 304 305 306 305 304 306
Wind_Speed
8 4 0 6 7 6 6 7 8 10 15 8 11 8 7 10 10 12 18 25 25 23 17 16 17 19 21 22 22 23 23 23 23 22 20 21 23 25
8 7 9 12 14 7 7 8 10 12 16 19 13 12 10 11 14 20 23 25 24 22 20 20 21 22 24 24 25 26 26 27 27 26 26 25 24 22
12 15 16 13 12 12 9 9 9 10 13 15 15 18 20 21 22 22 22 24 22 24 22 23 26 22 19 18 20 24 27 29 30 30 28 28 28 26
12 11 11 9 7 8 7 7 9 11 14 18 20 18 17 20 21 25 23 23 23 23 25 21 23 24 22 21 24 27 26 26 28 30 32 29 28 29
15 14 12 9 11 11 13 12 15 15 15 18 20 20 23 21 22 22 21 22 25 25 21 20 19 20 25 29 30 28 25 25 25 24 25 27 29 31
18 17 14 14 14 14 12 13 12 14 17 18 19 21 20 20 21 24 26 29 23 20 19 22 26 27 25 24 23 26 28 29 27 28 26 26 27 29
20 19 18 16 14 18 16 16 16 19 25 25 25 28 27 29 30 33 25 21 20 22 26 30 33 30 30 31 31 32 28 28 28 26 28 31 35 39
22 23 20 20 22 22 19 19 21 22 26 28 26 24 30 29 29 29 27 29 34 31 25 29 35 37 37 33 28 24 26 30 34 35 34 37 41 46
22 22 21 23 27 27 22 24 27 27 30 22 21 20 25 26 26 28 30 32 36 38 35 33 29 27 22 24 25 26 31 29 32 37 43 48 54 60
25 24 24 28 26 27 27 27 29 29 25 22 25 23 22 23 27 30 34 34 28 25 23 29 27 29 28 30 29 24 27 35 42 47 50 52 56 55
30 28 27 28 29 26 28 27 30 32 25 25 18 21 22 27 28 28 23 25 28 25 27 26 29 29 29 34 38 43 41 42 45 48 49 44 42 42
27 27 27 27 28 27 26 27 30 27 15 15 19 21 25 29 18 21 27 31 30 31 24 24 31 38 42 36 36 41 42 46 49 49 45 37 35 35
24 20 21 17 19 23 23 26 23 17 17 20 24 26 19 16 19 20 16 16 22 25 26 33 33 34 33 40 47 42 46 48 52 48 39 39 40 36
16 15 14 18 19 17 19 18 15 16 18 22 23 15 15 16 15 20 22 25 26 27 28 27 33 31 32 41 45 44 47 50 46 40 39 46 45 41
20 19 18 20 19 20 17 14 17 18 18 16 12 17 17 20 22 23 20 21 23 25 26 25 21 30 35 39 43 47 50 51 40 36 47 48 47 39
16 18 18 14 14 15 16 13 11 11 9 10 16 16 14 18 18 19 21 23 25 22 23 22 29 31 35 36 38 44 40 40 43 48 50 48 44 36
10 9 8 9 11 12 12 13 12 12 10 9 14 17 18 16 18 19 20 19 21 24 24 28 28 28 30 35 36 37 41 41 48 44 47 50 37 26
5 8 10 11 16 15 12 11 10 10 10 11 13 16 16 17 18 18 18 18 21 23 25 25 26 28 35 31 27 30 35 43 42 42 43 44 35 15
9 14 12 10 11 8 11 9 8 10 11 13 14 13 14 15 15 16 17 18 19 22 23 21 23 34 27 33 35 34 37 38 38 43 45 44 28 15
4 4 6 8 6 5 6 6 9 10 9 9 11 12 10 13 13 15 16 18 20 24 16 23 26 29 28 27 30 35 34 34 30 35 44 41 18 13
5 7 5 5 8 8 7 8 10 12 12 12 10 4 10 10 12 15 15 17 19 20 19 24 24 29 22 23 26 30 40 32 22 26 32 34 28 14
6 5 5 8 9 10 10 10 9 6 6 7 7 8 8 10 11 14 15 17 17 18 20 23 19 26 23 21 22 30 35 42 27 19 22 28 30 27
4 6 7 6 6 7 7 5 4 4 5 6 6 6 8 8 13 11 15 15 15 17 20 15 14 23 25 22 23 27 33 43 37 27 21 23 26 31
Wind_Direction
233 231 5 192 236 238 256 264 277 295 293 287 326 288 258 294 305 290 298 307 313 309 305 304 303 291 279 277 277 276 276 276 276 276 277 277 271 268
215 217 239 241 224 229 262 260 265 275 284 277 281 321 305 275 274 288 291 297 298 311 304 302 302 295 295 289 283 277 275 275 274 273 273 273 275 275
220 214 227 252 231 218 234 259 260 271 279 286 282 290 283 294 300 297 294 294 294 296 295 289 290 298 298 296 296 290 282 277 274 273 271 270 271 272
241 234 243 229 254 266 262 275 268 263 276 280 281 285 295 300 296 295 297 295 287 275 279 286 287 291 288 287 293 299 301 295 285 273 268 270 270 268
236 237 233 223 236 231 245 255 268 278 280 294 293 293 296 298 300 285 297 287 299 290 284 289 300 285 286 291 289 292 296 295 293 291 283 275 272 269
236 234 229 225 239 250 256 268 272 278 283 288 295 299 299 306 300 298 296 298 299 298 294 289 287 287 291 291 286 287 291 291 282 284 283 279 277 277
233 232 233 233 241 244 252 253 267 280 278 273 279 286 289 290 292 299 301 304 284 280 281 282 282 281 277 279 281 281 280 284 285 278 275 278 281 281
235 230 226 234 241 248 257 262 281 295 300 290 272 285 291 295 298 296 289 291 297 293 290 282 285 283 287 286 288 278 282 280 282 283 280 277 277 278
241 238 236 238 246 250 258 261 279 295 306 279 275 288 289 296 295 290 296 297 291 294 297 295 304 304 300 302 296 288 291 279 272 272 274 275 277 277
236 240 238 242 255 259 268 271 282 294 298 271 288 290 288 293 292 293 295 299 304 314 303 291 309 305 302 295 294 288 280 277 282 284 285 284 280 275
240 242 242 250 259 267 268 276 284 294 290 279 283 289 283 278 286 296 299 297 297 294 304 298 303 300 295 291 287 289 293 298 303 306 304 293 283 272
248 243 248 259 266 269 273 277 281 290 288 276 269 276 279 290 292 291 293 279 283 286 299 295 295 304 304 303 304 308 308 310 314 309 303 291 298 283
244 246 253 264 270 273 273 277 278 274 274 278 282 290 300 300 300 305 295 289 289 289 294 304 309 309 298 302 309 309 313 311 315 306 299 294 302 285
235 240 250 276 281 284 278 273 276 281 282 285 291 299 302 298 289 283 288 291 297 298 306 307 308 305 306 308 306 308 319 318 312 306 305 306 297 289
240 240 252 280 276 283 273 273 287 297 296 291 294 296 279 290 293 298 305 302 304 302 302 304 295 306 310 309 305 308 319 320 314 305 298 304 303 292
237 257 274 284 287 285 283 296 303 305 304 292 292 303 311 299 302 307 307 310 309 317 320 298 306 309 311 322 317 315 319 320 314 307 308 308 305 286
253 262 273 291 308 298 282 283 284 293 288 288 279 290 287 303 306 307 312 317 319 318 315 317 318 319 320 324 329 330 327 316 316 312 318 315 307 284
212 223 258 279 282 263 250 257 270 290 292 263 265 275 304 303 309 316 320 320 321 323 318 327 321 325 327 336 356 342 325 318 320 322 325 324 320 293
241 250 260 270 267 276 275 274 276 273 268 288 304 304 301 306 310 314 320 322 322 322 325 320 327 333 333 334 344 358 339 334 332 329 329 332 322 272
280 258 264 264 301 280 258 253 253 257 274 282 281 279 297 305 311 317 323 323 324 326 325 322 330 340 332 335 335 357 359 346 346 342 335 338 344 305
280 278 276 271 264 273 272 260 266 273 279 293 313 326 307 308 315 322 322 326 326 330 332 332 332 338 338 343 354 1 15 8 360 360 1 358 4 19
247 260 273 272 260 262 263 266 277 298 306 302 308 302 313 313 321 323 325 328 329 333 333 332 331 349 354 350 359 1 10 14 11 19 35 45 28 11
270 265 253 266 269 285 292 283 274 284 284 285 286 297 311 323 327 318 331 332 330 336 333 346 334 346 8 6 7 12 21 23 15 20 35 43 51 66